Location: Fours
(44.3167°N, 6.7000°E)
Time: 06:20:53
(UTC+00:00)

Sich 1 - Pass Details

Date: 30 November 2020
Orbit: 594 x 625 km, 82.5° (Epoch: 27 January)

Event Time Altitude Azimuth Distance (km) Brightness Sun altitude
Rises 16:47:40 0° 348° (NNW) 2,899 6.4 -9.2°
Reaches altitude 10° 16:49:55 10° 346° (NNW) 1,984 5.6 -9.6°
Maximum altitude 16:54:16 66° 265° (W) 670 3.5 -10.3°
Drops below altitude 10° 16:58:32 10° 183° (S) 1,947 5.9 -11.0°
Sets 17:00:44 0° 181° (S) 2,841 6.7 -11.4°
